SATCOM 3 DEB

基本信息
目录编号:
49958
目录名称:
SATCOM 3 DEB
国际标识:
1979-101AC
轨道中心:
EARTH
物体状态:
在轨
发射日期:
1979-12-07 UTC
轨道信息
数据来源: 国际轨道数据
星历时间: 2024-02-20T03:50:17+0800
半长轴: 29313.03km
偏心率: 0.4543005
轨道倾角: 11.237°
近地点辐角: 140.048°
升交点赤经: 67.599°
平近点角: 351.564°
近地点: 9617.97km
远地点: 36251.82km
周期: 832.436分钟
每日圈数: 1.729863
详细信息
发射场:
AFETR
轨道高度:
MEO
数据来源:
AOE Integration Group
参考系:
TEME
时间系统:
UTC
历元类型:
SGP4
2D轨道图
3D轨道图
轨道高度分析图
轨道倾角分析图
轨道综合分析图
查看轨道综合分析图